Weather in Kendzhe-Kulak

Russia / Stavropol Krai     45°28′02″N   43°48′47″E
temp.,
°C
wind,
m/s
gust,
m/s
humid.,
%
clouds,
%
prec.,
mm/h
press.,
hPa
HPBL,
m
14 april, wed
wed1400:00+11e494899 0.0 1018234
03:00+8se225776 0.0 101714
06:00+8wsw2260100 0.0 101730
09:00+12wnw6778100 0.0 1017549
12:00+15nw5562100 0.0 10161098
15:00+13w677099 0.0 1017630
18:00+12wnw577496 0.0 1017561
21:00+9w4888100 0.0 1018250
15 april, thu
thu1500:00+9wnw4991100 0.0 1017262
03:00+7wnw4995100 0.0 1017199
06:00+7w489246 0.0 1018193
09:00+13wnw686425 0.0 1017605
12:00+17nw67480 0.0 10161388
15:00+19nw66420 0.0 10161662
18:00+16n365873 0.0 1016134
21:00+12wnw2264100 0.0 101714
16 april, fri
fri1600:00+11w226929 0.0 101712
03:00+10w22745 0.0 101710
06:00+10w1173100 0.0 101810
09:00+15nne1156100 0.0 1018356
12:00+19ne224575 0.0 10181321
15:00+20ene324110 0.0 10171918
18:00+18e45526 0.0 1016109
21:00+13w7984100 1.0 1019346
17 april, sat
sat1700:00+12wnw5795100 1.7 1019289
03:00+10nw599642 1.7 1019319
06:00+10wnw71294100 0.9 1021610
09:00+10nw3588100 6.2 1022368
12:00+13nnw2369100 0.5 1022961
15:00+15sse2159100 0.5 1022434
18:00+12ssw4682100 0.0 1022192
21:00+10ssw3586100 0.0 1022107
18 april, sun
sun1800:00+10ssw2287100 0.5 102248
03:00+11ese2282100 0.5 102131
06:00+10ese3587100 0.0 1021182
09:00+10se3788100 0.3 1021296
12:00+11se2485100 0.3 1021341
15:00+10e3690100 1.4 1020292
18:00+10ene3692100 0.0 1020263
21:00+10ene2497100 4.4 1020222